Time,TemperatureF,DewpointF,PressureIn,WindDirection,WindDirectionDegrees,WindSpeedMPH,WindSpeedGustMPH,Humidity,HourlyPrecipIn,Conditions,Clouds,dailyrainin,SoftwareType,DateUTC
2013-05-15 00:04:00,66.7,55.4,30.09,ESE,112,0.0,0.0,67,0.00,,,0.00,WUHU21623XXSP,2013-05-15 04:04:00,
2013-05-15 00:09:00,66.6,55.6,30.09,East,90,0.0,0.0,68,0.00,,,0.00,WUHU21623XXSP,2013-05-15 04:09:00,
2013-05-15 00:14:00,66.0,55.1,30.09,ESE,112,0.0,0.0,68,0.00,,,0.00,WUHU21623XXSP,2013-05-15 04:14:00,
2013-05-15 00:19:00,66.0,55.5,30.09,East,90,0.0,0.0,69,0.00,,,0.00,WUHU21623XXSP,2013-05-15 04:19:00,
2013-05-15 00:24:00,65.3,55.3,30.09,ESE,112,0.0,0.0,70,0.00,,,0.00,WUHU21623XXSP,2013-05-15 04:24:00,
2013-05-15 00:29:00,65.3,55.3,30.09,ESE,112,0.0,0.0,70,0.00,,,0.00,WUHU21623XXSP,2013-05-15 04:29:00,
2013-05-15 00:34:00,64.9,55.0,30.09,ESE,112,0.0,0.0,70,0.00,,,0.00,WUHU21623XXSP,2013-05-15 04:34:00,
2013-05-15 00:39:00,64.9,55.0,30.09,ESE,112,0.0,0.0,70,0.00,,,0.00,WUHU21623XXSP,2013-05-15 04:39:00,
2013-05-15 00:44:00,64.9,55.0,30.09,ESE,112,0.0,0.0,70,0.00,,,0.00,WUHU21623XXSP,2013-05-15 04:44:00,
2013-05-15 00:49:00,64.9,55.0,30.09,East,90,0.0,0.0,70,0.00,,,0.00,WUHU21623XXSP,2013-05-15 04:49:00,
2013-05-15 00:54:00,64.9,55.3,30.09,East,90,0.0,0.0,71,0.00,,,0.00,WUHU21623XXSP,2013-05-15 04:54:00,
2013-05-15 00:59:00,64.9,55.3,30.09,ESE,112,0.0,0.0,71,0.00,,,0.00,WUHU21623XXSP,2013-05-15 04:59:00,
2013-05-15 01:04:00,64.9,55.3,30.09,ESE,112,0.0,0.0,71,0.00,,,0.00,WUHU21623XXSP,2013-05-15 05:04:00,
2013-05-15 01:09:00,65.1,55.1,30.09,ESE,112,0.0,0.0,70,0.00,,,0.00,WUHU21623XXSP,2013-05-15 05:09:00,
2013-05-15 01:14:00,65.1,55.1,30.09,SSW,202,0.0,0.0,70,0.00,,,0.00,WUHU21623XXSP,2013-05-15 05:14:00,
2013-05-15 01:19:00,65.1,55.1,30.09,ESE,112,0.0,0.0,70,0.00,,,0.00,WUHU21623XXSP,2013-05-15 05:19:00,
2013-05-15 01:24:00,64.9,55.0,30.10,South,180,0.0,0.0,70,0.00,,,0.00,WUHU21623XXSP,2013-05-15 05:24:00,
2013-05-15 01:29:00,64.8,55.2,30.09,North,0,0.0,0.0,71,0.00,,,0.00,WUHU21623XXSP,2013-05-15 05:29:00,
2013-05-15 01:34:00,64.6,55.0,30.09,ESE,112,0.0,0.0,71,0.00,,,0.00,WUHU21623XXSP,2013-05-15 05:34:00,
2013-05-15 01:39:00,64.2,54.7,30.10,ESE,112,0.0,0.0,71,0.00,,,0.00,WUHU21623XXSP,2013-05-15 05:39:00,
2013-05-15 01:44:00,64.2,55.0,30.10,East,90,0.0,0.0,72,0.00,,,0.00,WUHU21623XXSP,2013-05-15 05:44:00,
2013-05-15 01:49:00,63.7,54.9,30.10,East,90,0.0,0.0,73,0.00,,,0.00,WUHU21623XXSP,2013-05-15 05:49:00,
2013-05-15 01:54:00,63.3,54.5,30.10,South,180,0.0,0.0,73,0.00,,,0.00,WUHU21623XXSP,2013-05-15 05:54:00,
2013-05-15 01:59:00,63.0,54.5,30.10,ESE,112,0.0,0.0,74,0.00,,,0.00,WUHU21623XXSP,2013-05-15 05:59:00,
2013-05-15 02:04:00,62.6,54.5,30.10,NNE,22,0.0,0.0,75,0.00,,,0.00,WUHU21623XXSP,2013-05-15 06:04:00,
2013-05-15 02:09:00,62.2,54.5,30.10,East,90,0.0,0.0,76,0.00,,,0.00,WUHU21623XXSP,2013-05-15 06:09:00,
2013-05-15 02:14:00,61.7,54.4,30.10,East,90,0.0,0.0,77,0.00,,,0.00,WUHU21623XXSP,2013-05-15 06:14:00,
2013-05-15 02:20:00,61.3,54.4,30.10,East,90,0.0,0.0,78,0.00,,,0.00,WUHU21623XXSP,2013-05-15 06:20:00,
2013-05-15 02:25:00,61.2,54.3,30.10,East,90,0.0,0.0,78,0.00,,,0.00,WUHU21623XXSP,2013-05-15 06:25:00,
2013-05-15 02:30:00,61.0,54.1,30.10,NNE,22,0.0,0.0,78,0.00,,,0.00,WUHU21623XXSP,2013-05-15 06:30:00,
2013-05-15 02:35:00,60.6,54.1,30.10,ESE,112,0.0,0.0,79,0.00,,,0.00,WUHU21623XXSP,2013-05-15 06:35:00,
2013-05-15 02:40:00,60.3,53.8,30.10,East,90,0.0,0.0,79,0.00,,,0.00,WUHU21623XXSP,2013-05-15 06:40:00,
2013-05-15 02:45:00,60.1,54.0,30.10,East,90,0.0,0.0,80,0.00,,,0.00,WUHU21623XXSP,2013-05-15 06:45:00,
2013-05-15 02:50:00,59.7,53.6,30.11,East,90,0.0,0.0,80,0.00,,,0.00,WUHU21623XXSP,2013-05-15 06:50:00,
2013-05-15 02:55:00,59.5,53.7,30.11,East,90,0.0,0.0,81,0.00,,,0.00,WUHU21623XXSP,2013-05-15 06:55:00,
2013-05-15 03:00:00,59.2,53.4,30.10,ESE,112,0.0,0.0,81,0.00,,,0.00,WUHU21623XXSP,2013-05-15 07:00:00,
2013-05-15 03:05:00,58.8,53.3,30.10,ESE,112,0.0,0.0,82,0.00,,,0.00,WUHU21623XXSP,2013-05-15 07:05:00,
2013-05-15 03:10:00,58.8,53.3,30.10,ESE,112,0.0,0.0,82,0.00,,,0.00,WUHU21623XXSP,2013-05-15 07:10:00,
2013-05-15 03:15:00,58.6,53.3,30.10,ESE,112,0.0,0.0,82,0.00,,,0.00,WUHU21623XXSP,2013-05-15 07:15:00,
2013-05-15 03:20:00,58.3,53.1,30.10,ESE,112,0.0,0.0,83,0.00,,,0.00,WUHU21623XXSP,2013-05-15 07:20:00,
2013-05-15 03:25:00,58.1,53.0,30.10,North,0,0.0,0.0,83,0.00,,,0.00,WUHU21623XXSP,2013-05-15 07:25:00,
2013-05-15 03:30:00,57.9,52.8,30.10,East,90,0.0,0.0,83,0.00,,,0.00,WUHU21623XXSP,2013-05-15 07:30:00,
2013-05-15 03:35:00,57.7,52.6,30.10,East,90,0.0,0.0,83,0.00,,,0.00,WUHU21623XXSP,2013-05-15 07:35:00,
2013-05-15 03:40:00,57.7,52.9,30.10,ESE,112,0.0,0.0,84,0.00,,,0.00,WUHU21623XXSP,2013-05-15 07:40:00,
2013-05-15 03:45:00,57.4,52.6,30.10,East,90,0.0,0.0,84,0.00,,,0.00,WUHU21623XXSP,2013-05-15 07:45:00,
2013-05-15 03:50:00,57.4,52.6,30.10,ESE,112,0.0,0.0,84,0.00,,,0.00,WUHU21623XXSP,2013-05-15 07:50:00,
2013-05-15 03:55:00,57.0,52.2,30.10,ESE,112,0.0,0.0,84,0.00,,,0.00,WUHU21623XXSP,2013-05-15 07:55:00,
2013-05-15 04:00:00,57.0,52.2,30.10,East,90,0.0,0.0,84,0.00,,,0.00,WUHU21623XXSP,2013-05-15 08:00:00,
2013-05-15 04:05:00,57.0,52.5,30.11,NNE,22,0.0,0.0,85,0.00,,,0.00,WUHU21623XXSP,2013-05-15 08:05:00,
2013-05-15 04:10:00,57.0,52.5,30.11,East,90,0.0,0.0,85,0.00,,,0.00,WUHU21623XXSP,2013-05-15 08:10:00,
2013-05-15 04:15:00,56.8,52.3,30.11,South,180,0.0,0.0,85,0.00,,,0.00,WUHU21623XXSP,2013-05-15 08:15:00,
2013-05-15 04:20:00,56.8,52.3,30.11,South,180,0.0,0.0,85,0.00,,,0.00,WUHU21623XXSP,2013-05-15 08:20:00,
2013-05-15 04:25:00,56.7,52.2,30.11,East,90,0.0,0.0,85,0.00,,,0.00,WUHU21623XXSP,2013-05-15 08:25:00,
2013-05-15 04:30:00,56.5,52.0,30.11,NNE,22,0.0,0.0,85,0.00,,,0.00,WUHU21623XXSP,2013-05-15 08:30:00,
2013-05-15 04:35:00,56.5,52.0,30.11,NNE,22,0.0,0.0,85,0.00,,,0.00,WUHU21623XXSP,2013-05-15 08:35:00,
2013-05-15 04:41:00,56.3,51.8,30.11,East,90,0.0,0.0,85,0.00,,,0.00,WUHU21623XXSP,2013-05-15 08:41:00,
2013-05-15 04:46:00,56.1,51.6,30.11,ESE,112,0.0,0.0,85,0.00,,,0.00,WUHU21623XXSP,2013-05-15 08:46:00,
2013-05-15 04:51:00,56.1,51.9,30.12,ESE,112,0.0,0.0,86,0.00,,,0.00,WUHU21623XXSP,2013-05-15 08:51:00,
2013-05-15 04:56:00,55.9,51.8,30.12,ESE,112,0.0,0.0,86,0.00,,,0.00,WUHU21623XXSP,2013-05-15 08:56:00,
2013-05-15 05:01:00,55.9,51.8,30.12,South,180,0.0,0.0,86,0.00,,,0.00,WUHU21623XXSP,2013-05-15 09:01:00,
2013-05-15 05:06:00,55.9,51.8,30.12,East,90,0.0,0.0,86,0.00,,,0.00,WUHU21623XXSP,2013-05-15 09:06:00,
2013-05-15 05:11:00,55.8,51.6,30.12,East,90,0.0,0.0,86,0.00,,,0.00,WUHU21623XXSP,2013-05-15 09:11:00,
2013-05-15 05:16:00,55.8,51.6,30.12,East,90,0.0,0.0,86,0.00,,,0.00,WUHU21623XXSP,2013-05-15 09:16:00,
2013-05-15 05:21:00,55.6,51.4,30.12,ESE,112,0.0,0.0,86,0.00,,,0.00,WUHU21623XXSP,2013-05-15 09:21:00,
2013-05-15 05:26:00,55.6,51.4,30.12,East,90,0.0,0.0,86,0.00,,,0.00,WUHU21623XXSP,2013-05-15 09:26:00,
2013-05-15 05:31:00,55.4,51.2,30.13,East,90,0.0,0.0,86,0.00,,,0.00,WUHU21623XXSP,2013-05-15 09:31:00,
2013-05-15 05:36:00,55.2,51.4,30.12,East,90,0.0,0.0,87,0.00,,,0.00,WUHU21623XXSP,2013-05-15 09:36:00,
2013-05-15 05:41:00,55.2,51.4,30.13,East,90,0.0,0.0,87,0.00,,,0.00,WUHU21623XXSP,2013-05-15 09:41:00,
2013-05-15 05:46:00,55.2,51.4,30.13,East,90,0.0,0.0,87,0.00,,,0.00,WUHU21623XXSP,2013-05-15 09:46:00,
2013-05-15 05:51:00,55.2,51.4,30.13,South,180,0.0,0.0,87,0.00,,,0.00,WUHU21623XXSP,2013-05-15 09:51:00,
2013-05-15 05:56:00,55.0,51.2,30.13,South,180,0.0,0.0,87,0.00,,,0.00,WUHU21623XXSP,2013-05-15 09:56:00,
2013-05-15 06:01:00,55.0,51.2,30.13,ESE,112,0.0,0.0,87,0.00,,,0.00,WUHU21623XXSP,2013-05-15 10:01:00,
2013-05-15 06:07:00,54.9,51.0,30.13,East,90,0.0,0.0,87,0.00,,,0.00,WUHU21623XXSP,2013-05-15 10:07:00,
2013-05-15 06:12:00,54.7,50.8,30.13,East,90,0.0,0.0,87,0.00,,,0.00,WUHU21623XXSP,2013-05-15 10:12:00,
2013-05-15 06:17:00,54.7,50.8,30.13,ESE,112,0.0,0.0,87,0.00,,,0.00,WUHU21623XXSP,2013-05-15 10:17:00,
2013-05-15 06:22:00,54.7,50.8,30.13,East,90,0.0,0.0,87,0.00,,,0.00,WUHU21623XXSP,2013-05-15 10:22:00,
2013-05-15 06:27:00,54.7,50.8,30.14,East,90,0.0,0.0,87,0.00,,,0.00,WUHU21623XXSP,2013-05-15 10:27:00,
2013-05-15 06:32:00,54.7,50.8,30.14,ESE,112,0.0,0.0,87,0.00,,,0.00,WUHU21623XXSP,2013-05-15 10:32:00,
2013-05-15 06:37:00,54.7,50.8,30.14,ESE,112,0.0,0.0,87,0.00,,,0.00,WUHU21623XXSP,2013-05-15 10:37:00,
2013-05-15 06:42:00,54.7,50.8,30.14,ESE,112,0.0,0.0,87,0.00,,,0.00,WUHU21623XXSP,2013-05-15 10:42:00,
2013-05-15 06:47:00,54.5,50.7,30.15,NNE,22,0.0,0.0,87,0.00,,,0.00,WUHU21623XXSP,2013-05-15 10:47:00,
2013-05-15 06:52:00,54.5,50.7,30.15,ESE,112,0.0,0.0,87,0.00,,,0.00,WUHU21623XXSP,2013-05-15 10:52:00,
2013-05-15 06:57:00,54.5,50.7,30.15,NNE,22,0.0,0.0,87,0.00,,,0.00,WUHU21623XXSP,2013-05-15 10:57:00,
2013-05-15 07:02:00,54.7,50.8,30.15,ESE,112,0.0,0.0,87,0.00,,,0.00,WUHU21623XXSP,2013-05-15 11:02:00,
2013-05-15 07:07:00,54.9,51.0,30.15,NNE,22,0.0,0.0,87,0.00,,,0.00,WUHU21623XXSP,2013-05-15 11:07:00,
2013-05-15 07:13:00,55.0,51.2,30.16,East,90,0.0,0.0,87,0.00,,,0.00,WUHU21623XXSP,2013-05-15 11:13:00,
2013-05-15 07:18:00,55.0,51.2,30.16,WNW,292,0.0,0.0,87,0.00,,,0.00,WUHU21623XXSP,2013-05-15 11:18:00,
2013-05-15 07:23:00,55.2,51.7,30.15,ESE,112,0.0,0.0,88,0.00,,,0.00,WUHU21623XXSP,2013-05-15 11:23:00,
2013-05-15 07:28:00,55.2,51.7,30.16,NNE,22,0.0,0.0,88,0.00,,,0.00,WUHU21623XXSP,2013-05-15 11:28:00,
2013-05-15 07:33:00,55.6,52.1,30.16,WNW,292,0.0,0.0,88,0.00,,,0.00,WUHU21623XXSP,2013-05-15 11:33:00,
2013-05-15 07:38:00,55.9,52.4,30.16,WNW,292,0.0,0.0,88,0.00,,,0.00,WUHU21623XXSP,2013-05-15 11:38:00,
2013-05-15 07:43:00,56.1,52.6,30.16,WNW,292,0.0,0.0,88,0.00,,,0.00,WUHU21623XXSP,2013-05-15 11:43:00,
2013-05-15 07:48:00,56.3,52.8,30.16,North,0,0.0,0.0,88,0.00,,,0.00,WUHU21623XXSP,2013-05-15 11:48:00,
2013-05-15 07:53:00,57.0,53.5,30.16,North,0,0.0,0.0,88,0.00,,,0.00,WUHU21623XXSP,2013-05-15 11:53:00,
2013-05-15 07:59:00,57.6,54.0,30.16,North,0,0.0,0.0,88,0.00,,,0.00,WUHU21623XXSP,2013-05-15 11:59:00,
2013-05-15 08:04:00,58.3,54.8,30.17,WNW,292,0.0,0.0,88,0.00,,,0.00,WUHU21623XXSP,2013-05-15 12:04:00,
2013-05-15 08:09:00,59.5,55.7,30.17,NNE,22,0.0,0.0,87,0.00,,,0.00,WUHU21623XXSP,2013-05-15 12:09:00,
2013-05-15 08:14:00,60.6,56.8,30.17,WNW,292,0.0,0.0,87,0.00,,,0.00,WUHU21623XXSP,2013-05-15 12:14:00,
2013-05-15 08:19:00,61.5,57.3,30.17,WNW,292,0.0,0.0,86,0.00,,,0.00,WUHU21623XXSP,2013-05-15 12:19:00,
2013-05-15 08:24:00,63.0,58.4,30.17,SSW,202,0.0,0.0,85,0.00,,,0.00,WUHU21623XXSP,2013-05-15 12:24:00,
2013-05-15 08:29:00,63.5,58.6,30.17,West,270,0.0,0.0,84,0.00,,,0.00,WUHU21623XXSP,2013-05-15 12:29:00,
2013-05-15 08:34:00,64.2,58.6,30.17,WNW,292,0.0,0.0,82,0.00,,,0.00,WUHU21623XXSP,2013-05-15 12:34:00,
2013-05-15 08:39:00,64.9,59.0,30.17,WNW,292,0.0,0.0,81,0.00,,,0.00,WUHU21623XXSP,2013-05-15 12:39:00,
2013-05-15 08:44:00,66.0,59.7,30.17,WNW,292,0.0,0.0,80,0.00,,,0.00,WUHU21623XXSP,2013-05-15 12:44:00,
2013-05-15 08:49:00,66.0,59.0,30.17,WNW,292,0.0,0.0,78,0.00,,,0.00,WUHU21623XXSP,2013-05-15 12:49:00,
2013-05-15 08:54:00,66.4,58.9,30.17,North,0,0.0,0.0,77,0.00,,,0.00,WUHU21623XXSP,2013-05-15 12:54:00,
2013-05-15 08:59:00,66.6,59.1,30.17,West,270,0.0,0.0,77,0.00,,,0.00,WUHU21623XXSP,2013-05-15 12:59:00,
2013-05-15 09:04:00,67.8,60.0,30.17,WNW,292,0.0,0.0,76,0.00,,,0.00,WUHU21623XXSP,2013-05-15 13:04:00,
2013-05-15 09:10:00,68.2,59.6,30.17,North,0,0.0,0.0,74,0.00,,,0.00,WUHU21623XXSP,2013-05-15 13:10:00,
2013-05-15 09:15:00,68.7,60.1,30.17,WNW,292,0.0,0.0,74,0.00,,,0.00,WUHU21623XXSP,2013-05-15 13:15:00,
2013-05-15 09:20:00,69.1,60.0,30.17,North,0,0.0,0.0,73,0.00,,,0.00,WUHU21623XXSP,2013-05-15 13:20:00,
2013-05-15 09:25:00,69.8,60.7,30.18,WNW,292,0.0,0.0,73,0.00,,,0.00,WUHU21623XXSP,2013-05-15 13:25:00,
2013-05-15 09:31:00,70.3,60.8,30.18,WNW,292,0.0,0.0,72,0.00,,,0.00,WUHU21623XXSP,2013-05-15 13:31:00,
2013-05-15 09:36:00,70.7,61.2,30.18,WNW,292,0.0,0.0,72,0.00,,,0.00,WUHU21623XXSP,2013-05-15 13:36:00,
2013-05-15 09:41:00,71.8,61.5,30.17,WNW,292,0.0,0.0,70,0.00,,,0.00,WUHU21623XXSP,2013-05-15 13:41:00,
2013-05-15 09:46:00,72.3,61.6,30.17,WNW,292,0.0,0.0,69,0.00,,,0.00,WUHU21623XXSP,2013-05-15 13:46:00,
2013-05-15 09:51:00,73.0,61.9,30.17,WNW,292,0.0,0.0,68,0.00,,,0.00,WUHU21623XXSP,2013-05-15 13:51:00,
2013-05-15 09:56:00,73.8,62.1,30.17,West,270,0.0,0.0,67,0.00,,,0.00,WUHU21623XXSP,2013-05-15 13:56:00,
2013-05-15 10:01:00,73.9,61.8,30.17,WNW,292,0.0,0.0,66,0.00,,,0.00,WUHU21623XXSP,2013-05-15 14:01:00,
2013-05-15 10:06:00,74.3,61.3,30.17,WNW,292,0.0,0.0,64,0.00,,,0.00,WUHU21623XXSP,2013-05-15 14:06:00,
2013-05-15 10:11:00,75.0,62.4,30.17,WNW,292,0.0,0.0,65,0.00,,,0.00,WUHU21623XXSP,2013-05-15 14:11:00,
2013-05-15 10:16:00,75.6,62.5,30.17,WNW,292,0.0,0.0,64,0.00,,,0.00,WUHU21623XXSP,2013-05-15 14:16:00,
2013-05-15 10:21:00,75.9,62.0,30.17,WNW,292,0.0,0.0,62,0.00,,,0.00,WUHU21623XXSP,2013-05-15 14:21:00,
2013-05-15 10:26:00,76.6,62.2,30.17,WNW,292,0.0,0.0,61,0.00,,,0.00,WUHU21623XXSP,2013-05-15 14:26:00,
2013-05-15 10:32:00,76.6,63.1,30.16,WNW,292,0.0,0.0,63,0.00,,,0.00,WUHU21623XXSP,2013-05-15 14:32:00,
2013-05-15 10:37:00,78.1,62.6,30.16,SSW,202,0.0,0.0,59,0.00,,,0.00,WUHU21623XXSP,2013-05-15 14:37:00,
2013-05-15 10:42:00,78.6,62.6,30.16,North,0,0.0,0.0,58,0.00,,,0.00,WUHU21623XXSP,2013-05-15 14:42:00,
2013-05-15 10:47:00,79.3,62.3,30.15,North,0,0.0,0.0,56,0.00,,,0.00,WUHU21623XXSP,2013-05-15 14:47:00,
2013-05-15 10:52:00,79.7,62.6,30.15,WNW,292,0.0,0.0,56,0.00,,,0.00,WUHU21623XXSP,2013-05-15 14:52:00,
2013-05-15 10:57:00,79.5,61.4,30.15,WNW,292,0.0,0.0,54,0.00,,,0.00,WUHU21623XXSP,2013-05-15 14:57:00,
2013-05-15 11:02:00,80.4,61.7,30.15,West,270,0.0,0.0,53,0.00,,,0.00,WUHU21623XXSP,2013-05-15 15:02:00,
2013-05-15 11:07:00,80.4,61.7,30.15,East,90,0.0,0.0,53,0.00,,,0.00,WUHU21623XXSP,2013-05-15 15:07:00,
2013-05-15 11:13:00,80.8,62.0,30.15,North,0,0.0,0.0,53,0.00,,,0.00,WUHU21623XXSP,2013-05-15 15:13:00,
2013-05-15 11:18:00,81.3,61.4,30.15,SSW,202,0.0,0.0,51,0.00,,,0.00,WUHU21623XXSP,2013-05-15 15:18:00,
2013-05-15 11:23:00,81.1,61.8,30.14,WNW,292,0.0,0.0,52,0.00,,,0.00,WUHU21623XXSP,2013-05-15 15:23:00,
2013-05-15 11:28:00,81.3,62.0,30.14,ESE,112,0.0,0.0,52,0.00,,,0.00,WUHU21623XXSP,2013-05-15 15:28:00,
2013-05-15 11:33:00,82.2,61.7,30.14,SSW,202,0.0,0.0,50,0.00,,,0.00,WUHU21623XXSP,2013-05-15 15:33:00,
2013-05-15 11:38:00,82.2,61.7,30.15,East,90,0.0,0.0,50,0.00,,,0.00,WUHU21623XXSP,2013-05-15 15:38:00,
2013-05-15 11:44:00,83.1,62.6,30.14,North,0,0.0,0.0,50,0.00,,,0.00,WUHU21623XXSP,2013-05-15 15:44:00,
2013-05-15 11:49:00,82.9,60.6,30.14,SSW,202,0.0,0.0,47,0.00,,,0.00,WUHU21623XXSP,2013-05-15 15:49:00,
2013-05-15 11:54:00,83.1,62.0,30.14,South,180,0.0,0.0,49,0.00,,,0.00,WUHU21623XXSP,2013-05-15 15:54:00,
2013-05-15 11:59:00,83.5,63.0,30.14,WNW,292,0.0,0.0,50,0.00,,,0.00,WUHU21623XXSP,2013-05-15 15:59:00,
2013-05-15 12:04:00,83.3,62.2,30.14,West,270,0.0,0.0,49,0.00,,,0.00,WUHU21623XXSP,2013-05-15 16:04:00,
2013-05-15 12:09:00,83.8,62.1,30.14,WNW,292,0.0,0.0,48,0.00,,,0.00,WUHU21623XXSP,2013-05-15 16:09:00,
2013-05-15 12:14:00,84.0,62.2,30.13,SSW,202,0.0,0.0,48,0.00,,,0.00,WUHU21623XXSP,2013-05-15 16:14:00,
2013-05-15 12:19:00,85.1,62.0,30.14,East,90,0.0,0.0,46,0.00,,,0.00,WUHU21623XXSP,2013-05-15 16:19:00,
2013-05-15 12:24:00,84.2,61.2,30.13,WNW,292,0.0,0.0,46,0.00,,,0.00,WUHU21623XXSP,2013-05-15 16:24:00,
2013-05-15 12:29:00,84.4,62.0,30.13,NNE,22,0.0,0.0,47,0.00,,,0.00,WUHU21623XXSP,2013-05-15 16:29:00,
2013-05-15 12:34:00,84.7,61.6,30.13,South,180,0.0,0.0,46,0.00,,,0.00,WUHU21623XXSP,2013-05-15 16:34:00,
2013-05-15 12:39:00,85.3,62.1,30.13,West,270,0.0,0.0,46,0.00,,,0.00,WUHU21623XXSP,2013-05-15 16:39:00,
2013-05-15 12:44:00,85.1,62.6,30.13,SSW,202,0.0,0.0,47,0.00,,,0.00,WUHU21623XXSP,2013-05-15 16:44:00,
2013-05-15 12:49:00,84.9,61.2,30.12,South,180,0.0,0.0,45,0.00,,,0.00,WUHU21623XXSP,2013-05-15 16:49:00,
2013-05-15 12:54:00,84.7,61.6,30.12,ESE,112,0.0,0.0,46,0.00,,,0.00,WUHU21623XXSP,2013-05-15 16:54:00,
2013-05-15 12:59:00,85.3,62.8,30.12,NNE,22,0.0,0.0,47,0.00,,,0.00,WUHU21623XXSP,2013-05-15 16:59:00,
2013-05-15 13:04:00,86.2,63.6,30.12,ESE,112,0.0,0.0,47,0.00,,,0.00,WUHU21623XXSP,2013-05-15 17:04:00,
2013-05-15 13:09:00,86.4,63.1,30.12,West,270,0.0,0.0,46,0.00,,,0.00,WUHU21623XXSP,2013-05-15 17:09:00,
2013-05-15 13:15:00,85.8,62.0,30.12,West,270,0.0,0.0,45,0.00,,,0.00,WUHU21623XXSP,2013-05-15 17:15:00,
2013-05-15 13:20:00,85.8,63.2,30.12,WNW,292,0.0,0.0,47,0.00,,,0.00,WUHU21623XXSP,2013-05-15 17:20:00,
2013-05-15 13:25:00,85.8,62.0,30.11,SSW,202,0.0,0.0,45,0.00,,,0.00,WUHU21623XXSP,2013-05-15 17:25:00,
2013-05-15 13:30:00,86.0,61.5,30.11,WNW,292,0.0,0.0,44,0.00,,,0.00,WUHU21623XXSP,2013-05-15 17:30:00,
2013-05-15 13:35:00,86.2,62.3,30.11,West,270,0.0,0.0,45,0.00,,,0.00,WUHU21623XXSP,2013-05-15 17:35:00,
2013-05-15 13:40:00,86.9,61.7,30.11,West,270,0.0,0.0,43,0.00,,,0.00,WUHU21623XXSP,2013-05-15 17:40:00,
2013-05-15 13:48:00,87.6,62.3,30.11,North,0,0.0,0.0,43,0.00,,,0.00,WUHU21623XXSP,2013-05-15 17:48:00,
2013-05-15 13:54:00,86.7,62.2,30.10,NNE,22,0.0,0.0,44,0.00,,,0.00,WUHU21623XXSP,2013-05-15 17:54:00,
2013-05-15 13:59:00,87.4,62.2,30.09,SSW,202,0.0,0.0,43,0.00,,,0.00,WUHU21623XXSP,2013-05-15 17:59:00,
2013-05-15 14:04:00,87.8,62.5,30.09,WNW,292,0.0,0.0,43,0.00,,,0.00,WUHU21623XXSP,2013-05-15 18:04:00,
2013-05-15 14:09:00,87.6,63.0,30.09,West,270,0.0,0.0,44,0.00,,,0.00,WUHU21623XXSP,2013-05-15 18:09:00,
2013-05-15 14:14:00,87.3,62.7,30.09,West,270,0.0,0.0,44,0.00,,,0.00,WUHU21623XXSP,2013-05-15 18:14:00,
2013-05-15 14:19:00,87.6,62.3,30.09,WNW,292,0.0,0.0,43,0.00,,,0.00,WUHU21623XXSP,2013-05-15 18:19:00,
2013-05-15 14:25:00,87.4,62.8,30.08,South,180,0.0,0.0,44,0.00,,,0.00,WUHU21623XXSP,2013-05-15 18:25:00,
2013-05-15 14:30:00,87.6,63.0,30.08,North,0,0.0,0.0,44,0.00,,,0.00,WUHU21623XXSP,2013-05-15 18:30:00,
2013-05-15 14:35:00,88.3,63.6,30.08,West,270,0.0,0.0,44,0.00,,,0.00,WUHU21623XXSP,2013-05-15 18:35:00,
2013-05-15 14:40:00,88.9,63.4,30.08,West,270,0.0,0.0,43,0.00,,,0.00,WUHU21623XXSP,2013-05-15 18:40:00,
2013-05-15 14:45:00,88.9,62.8,30.07,West,270,0.0,0.0,42,0.00,,,0.00,WUHU21623XXSP,2013-05-15 18:45:00,
2013-05-15 14:50:00,88.7,62.0,30.07,NNE,22,0.0,0.0,41,0.00,,,0.00,WUHU21623XXSP,2013-05-15 18:50:00,
2013-05-15 14:55:00,88.9,62.1,30.07,North,0,0.0,0.0,41,0.00,,,0.00,WUHU21623XXSP,2013-05-15 18:55:00,
2013-05-15 15:00:00,88.3,62.3,30.07,SSW,202,0.0,0.0,42,0.00,,,0.00,WUHU21623XXSP,2013-05-15 19:00:00,
2013-05-15 15:05:00,88.0,61.4,30.07,WNW,292,0.0,0.0,41,0.00,,,0.00,WUHU21623XXSP,2013-05-15 19:05:00,
2013-05-15 15:10:00,87.6,61.7,30.06,West,270,0.0,0.0,42,0.00,,,0.00,WUHU21623XXSP,2013-05-15 19:10:00,
2013-05-15 15:16:00,88.2,62.2,30.06,WNW,292,0.0,0.0,42,0.00,,,0.00,WUHU21623XXSP,2013-05-15 19:16:00,
2013-05-15 15:21:00,88.9,62.8,30.06,SSW,202,0.0,0.0,42,0.00,,,0.00,WUHU21623XXSP,2013-05-15 19:21:00,
2013-05-15 15:26:00,88.9,61.5,30.06,West,270,0.0,0.0,40,0.00,,,0.00,WUHU21623XXSP,2013-05-15 19:26:00,
2013-05-15 15:31:00,88.9,62.1,30.06,East,90,0.0,0.0,41,0.00,,,0.00,WUHU21623XXSP,2013-05-15 19:31:00,
2013-05-15 15:36:00,88.5,61.8,30.05,WNW,292,0.0,0.0,41,0.00,,,0.00,WUHU21623XXSP,2013-05-15 19:36:00,
2013-05-15 15:41:00,87.6,60.5,30.05,West,270,0.0,0.0,40,0.00,,,0.00,WUHU21623XXSP,2013-05-15 19:41:00,
2013-05-15 15:46:00,87.3,60.8,30.05,West,270,0.0,0.0,41,0.00,,,0.00,WUHU21623XXSP,2013-05-15 19:46:00,
2013-05-15 15:51:00,86.9,60.4,30.05,North,0,0.0,0.0,41,0.00,,,0.00,WUHU21623XXSP,2013-05-15 19:51:00,
2013-05-15 15:57:00,86.9,59.0,30.05,WNW,292,0.0,0.0,39,0.00,,,0.00,WUHU21623XXSP,2013-05-15 19:57:00,
2013-05-15 16:02:00,86.7,60.3,30.04,WNW,292,0.0,0.0,41,0.00,,,0.00,WUHU21623XXSP,2013-05-15 20:02:00,
2013-05-15 16:07:00,86.7,60.3,30.04,North,0,0.0,0.0,41,0.00,,,0.00,WUHU21623XXSP,2013-05-15 20:07:00,
2013-05-15 16:12:00,86.5,60.7,30.04,West,270,0.0,0.0,42,0.00,,,0.00,WUHU21623XXSP,2013-05-15 20:12:00,
2013-05-15 16:17:00,86.2,57.6,30.03,SSW,202,0.0,0.0,38,0.00,,,0.00,WUHU21623XXSP,2013-05-15 20:17:00,
2013-05-15 16:22:00,85.8,57.3,30.03,South,180,0.0,0.0,38,0.00,,,0.00,WUHU21623XXSP,2013-05-15 20:22:00,
2013-05-15 16:28:00,86.0,60.3,30.03,SSW,202,0.0,0.0,42,0.00,,,0.00,WUHU21623XXSP,2013-05-15 20:28:00,
2013-05-15 16:33:00,85.8,59.5,30.03,South,180,0.0,0.0,41,0.00,,,0.00,WUHU21623XXSP,2013-05-15 20:33:00,
2013-05-15 16:45:00,85.8,60.7,30.03,North,0,0.0,0.0,43,0.00,,,0.00,WUHU21623XXSP,2013-05-15 20:45:00,
2013-05-15 16:54:00,85.8,60.7,30.02,WNW,292,0.0,0.0,43,0.00,,,0.00,WUHU21623XXSP,2013-05-15 20:54:00,
2013-05-15 16:59:00,85.8,60.7,30.02,WNW,292,0.0,0.0,43,0.00,,,0.00,WUHU21623XXSP,2013-05-15 20:59:00,
2013-05-15 17:04:00,85.8,60.7,30.02,East,90,0.0,0.0,43,0.00,,,0.00,WUHU21623XXSP,2013-05-15 21:04:00,
2013-05-15 17:09:00,85.8,60.7,30.02,North,0,0.0,0.0,43,0.00,,,0.00,WUHU21623XXSP,2013-05-15 21:09:00,
2013-05-15 17:14:00,85.6,59.9,30.02,SSW,202,0.0,0.0,43,0.00,,,0.00,WUHU21623XXSP,2013-05-15 21:14:00,
2013-05-15 17:19:00,85.6,61.2,30.02,West,270,0.0,0.0,44,0.00,,,0.00,WUHU21623XXSP,2013-05-15 21:19:00,
2013-05-15 17:24:00,85.5,60.4,30.02,WNW,292,0.0,0.0,43,0.00,,,0.00,WUHU21623XXSP,2013-05-15 21:24:00,
2013-05-15 17:29:00,85.3,59.6,30.01,North,0,0.0,0.0,42,0.00,,,0.00,WUHU21623XXSP,2013-05-15 21:29:00,
2013-05-15 17:34:00,84.9,59.3,30.01,West,270,0.0,0.0,42,0.00,,,0.00,WUHU21623XXSP,2013-05-15 21:34:00,
2013-05-15 17:40:00,84.9,58.7,30.01,WNW,292,0.0,0.0,41,0.00,,,0.00,WUHU21623XXSP,2013-05-15 21:40:00,
2013-05-15 17:45:00,84.7,59.1,30.01,WNW,292,0.0,0.0,42,0.00,,,0.00,WUHU21623XXSP,2013-05-15 21:45:00,
2013-05-15 17:50:00,84.7,59.8,30.00,South,180,0.0,0.0,43,0.00,,,0.00,WUHU21623XXSP,2013-05-15 21:50:00,
2013-05-15 17:55:00,84.6,59.0,30.01,SSW,202,0.0,0.0,42,0.00,,,0.00,WUHU21623XXSP,2013-05-15 21:55:00,
2013-05-15 18:00:00,84.4,58.8,30.01,NNE,22,0.0,0.0,42,0.00,,,0.00,WUHU21623XXSP,2013-05-15 22:00:00,
2013-05-15 18:05:00,83.8,58.3,30.01,South,180,0.0,0.0,42,0.00,,,0.00,WUHU21623XXSP,2013-05-15 22:05:00,
2013-05-15 18:10:00,83.5,58.6,30.01,SSW,202,0.0,0.0,43,0.00,,,0.00,WUHU21623XXSP,2013-05-15 22:10:00,
2013-05-15 18:15:00,83.1,59.5,30.01,SSW,202,0.0,0.0,45,0.00,,,0.00,WUHU21623XXSP,2013-05-15 22:15:00,
2013-05-15 18:20:00,82.9,59.3,30.01,NNE,22,0.0,0.0,45,0.00,,,0.00,WUHU21623XXSP,2013-05-15 22:20:00,
2013-05-15 18:25:00,82.8,59.8,30.01,WNW,292,0.0,0.0,46,0.00,,,0.00,WUHU21623XXSP,2013-05-15 22:25:00,
2013-05-15 18:31:00,82.8,59.8,30.01,South,180,0.0,0.0,46,0.00,,,0.00,WUHU21623XXSP,2013-05-15 22:31:00,
2013-05-15 18:36:00,82.6,59.6,30.01,North,0,0.0,0.0,46,0.00,,,0.00,WUHU21623XXSP,2013-05-15 22:36:00,
2013-05-15 18:41:00,82.2,58.7,30.01,SSW,202,0.0,0.0,45,0.00,,,0.00,WUHU21623XXSP,2013-05-15 22:41:00,
2013-05-15 18:46:00,82.2,57.4,30.00,SSW,202,0.0,0.0,43,0.00,,,0.00,WUHU21623XXSP,2013-05-15 22:46:00,
2013-05-15 18:51:00,82.0,56.7,30.00,SSW,202,0.0,0.0,42,0.00,,,0.00,WUHU21623XXSP,2013-05-15 22:51:00,
2013-05-15 18:56:00,82.2,56.8,30.00,North,0,0.0,0.0,42,0.00,,,0.00,WUHU21623XXSP,2013-05-15 22:56:00,
2013-05-15 19:02:00,82.2,56.2,30.00,East,90,0.0,0.0,41,0.00,,,0.00,WUHU21623XXSP,2013-05-15 23:02:00,
2013-05-15 19:07:00,82.2,56.2,30.00,SSW,202,0.0,0.0,41,0.00,,,0.00,WUHU21623XXSP,2013-05-15 23:07:00,
2013-05-15 19:12:00,81.9,56.5,30.00,West,270,0.0,0.0,42,0.00,,,0.00,WUHU21623XXSP,2013-05-15 23:12:00,
2013-05-15 19:17:00,81.3,56.0,30.00,West,270,0.0,0.0,42,0.00,,,0.00,WUHU21623XXSP,2013-05-15 23:17:00,
2013-05-15 19:22:00,81.1,55.2,30.00,North,0,0.0,0.0,41,0.00,,,0.00,WUHU21623XXSP,2013-05-15 23:22:00,
2013-05-15 19:27:00,80.8,56.1,30.00,West,270,0.0,0.0,43,0.00,,,0.00,WUHU21623XXSP,2013-05-15 23:27:00,
2013-05-15 19:32:00,80.2,55.0,30.00,West,270,0.0,0.0,42,0.00,,,0.00,WUHU21623XXSP,2013-05-15 23:32:00,
2013-05-15 19:38:00,79.9,54.7,30.01,NNE,22,0.0,0.0,42,0.00,,,0.00,WUHU21623XXSP,2013-05-15 23:38:00,
2013-05-15 19:43:00,79.2,54.7,30.01,East,90,0.0,0.0,43,0.00,,,0.00,WUHU21623XXSP,2013-05-15 23:43:00,
2013-05-15 19:49:00,79.0,54.5,30.01,ESE,112,0.0,0.0,43,0.00,,,0.00,WUHU21623XXSP,2013-05-15 23:49:00,
2013-05-15 19:54:00,78.6,54.2,30.01,NNE,22,0.0,0.0,43,0.00,,,0.00,WUHU21623XXSP,2013-05-15 23:54:00,
2013-05-15 19:59:00,77.9,54.8,30.01,NNE,22,0.0,0.0,45,0.00,,,0.00,WUHU21623XXSP,2013-05-15 23:59:00,
2013-05-15 20:04:00,77.4,54.3,30.01,ESE,112,0.0,0.0,45,0.00,,,0.00,WUHU21623XXSP,2013-05-16 00:04:00,
2013-05-15 20:09:00,77.2,54.7,30.01,East,90,0.0,0.0,46,0.00,,,0.00,WUHU21623XXSP,2013-05-16 00:09:00,
2013-05-15 20:15:00,75.9,54.8,30.01,East,90,0.0,0.0,48,0.00,,,0.00,WUHU21623XXSP,2013-05-16 00:15:00,
2013-05-15 20:20:00,75.0,55.2,30.01,ESE,112,0.0,0.0,50,0.00,,,0.00,WUHU21623XXSP,2013-05-16 00:20:00,
2013-05-15 20:25:00,73.9,55.1,30.01,NNE,22,0.0,0.0,52,0.00,,,0.00,WUHU21623XXSP,2013-05-16 00:25:00,
2013-05-15 20:30:00,73.2,54.4,30.01,East,90,0.0,0.0,52,0.00,,,0.00,WUHU21623XXSP,2013-05-16 00:30:00,
2013-05-15 20:35:00,72.3,54.6,30.01,East,90,0.0,0.0,54,0.00,,,0.00,WUHU21623XXSP,2013-05-16 00:35:00,
2013-05-15 20:41:00,71.8,54.2,30.01,ESE,112,0.0,0.0,54,0.00,,,0.00,WUHU21623XXSP,2013-05-16 00:41:00,
2013-05-15 20:46:00,71.2,54.2,30.01,East,90,0.0,0.0,55,0.00,,,0.00,WUHU21623XXSP,2013-05-16 00:46:00,
2013-05-15 20:51:00,70.9,54.4,30.01,ESE,112,0.0,0.0,56,0.00,,,0.00,WUHU21623XXSP,2013-05-16 00:51:00,
2013-05-15 20:56:00,70.7,54.7,30.02,ESE,112,0.0,0.0,57,0.00,,,0.00,WUHU21623XXSP,2013-05-16 00:56:00,
2013-05-15 21:01:00,70.5,53.5,30.02,ESE,112,0.0,0.0,55,0.00,,,0.00,WUHU21623XXSP,2013-05-16 01:01:00,
2013-05-15 21:06:00,70.5,53.0,30.02,ESE,112,0.0,0.0,54,0.00,,,0.00,WUHU21623XXSP,2013-05-16 01:06:00,
2013-05-15 21:11:00,70.5,53.5,30.02,NNE,22,0.0,0.0,55,0.00,,,0.00,WUHU21623XXSP,2013-05-16 01:11:00,
2013-05-15 21:16:00,70.0,53.5,30.02,East,90,0.0,0.0,56,0.00,,,0.00,WUHU21623XXSP,2013-05-16 01:16:00,
2013-05-15 21:21:00,69.8,53.4,30.02,NNE,22,0.0,0.0,56,0.00,,,0.00,WUHU21623XXSP,2013-05-16 01:21:00,
2013-05-15 21:27:00,70.0,53.0,30.02,East,90,0.0,0.0,55,0.00,,,0.00,WUHU21623XXSP,2013-05-16 01:27:00,
2013-05-15 21:32:00,70.3,52.4,30.03,ESE,112,0.0,0.0,53,0.00,,,0.00,WUHU21623XXSP,2013-05-16 01:32:00,
2013-05-15 21:37:00,70.3,52.9,30.03,ESE,112,0.0,0.0,54,0.00,,,0.00,WUHU21623XXSP,2013-05-16 01:37:00,
2013-05-15 21:42:00,69.8,52.4,30.03,ESE,112,0.0,0.0,54,0.00,,,0.00,WUHU21623XXSP,2013-05-16 01:42:00,
2013-05-15 21:48:00,69.6,52.2,30.04,East,90,0.0,0.0,54,0.00,,,0.00,WUHU21623XXSP,2013-05-16 01:48:00,
2013-05-15 21:53:00,69.4,52.0,30.03,East,90,0.0,0.0,54,0.00,,,0.00,WUHU21623XXSP,2013-05-16 01:53:00,
2013-05-15 21:58:00,69.1,51.7,30.04,East,90,0.0,0.0,54,0.00,,,0.00,WUHU21623XXSP,2013-05-16 01:58:00,
2013-05-15 22:03:00,68.9,51.5,30.04,East,90,0.0,0.0,54,0.00,,,0.00,WUHU21623XXSP,2013-05-16 02:03:00,
2013-05-15 22:08:00,68.7,51.9,30.04,South,180,0.0,0.0,55,0.00,,,0.00,WUHU21623XXSP,2013-05-16 02:08:00,
2013-05-15 22:13:00,68.2,51.8,30.04,East,90,0.0,0.0,56,0.00,,,0.00,WUHU21623XXSP,2013-05-16 02:13:00,
2013-05-15 22:18:00,67.6,51.8,30.04,ESE,112,0.0,0.0,57,0.00,,,0.00,WUHU21623XXSP,2013-05-16 02:18:00,
2013-05-15 22:24:00,67.3,51.5,30.04,South,180,0.0,0.0,57,0.00,,,0.00,WUHU21623XXSP,2013-05-16 02:24:00,
2013-05-15 22:29:00,66.9,52.1,30.04,East,90,0.0,0.0,59,0.00,,,0.00,WUHU21623XXSP,2013-05-16 02:29:00,
2013-05-15 22:34:00,66.4,52.1,30.04,ESE,112,0.0,0.0,60,0.00,,,0.00,WUHU21623XXSP,2013-05-16 02:34:00,
2013-05-15 22:39:00,66.0,51.3,30.04,ESE,112,0.0,0.0,59,0.00,,,0.00,WUHU21623XXSP,2013-05-16 02:39:00,
2013-05-15 22:44:00,65.8,51.6,30.04,East,90,0.0,0.0,60,0.00,,,0.00,WUHU21623XXSP,2013-05-16 02:44:00,
2013-05-15 22:49:00,65.5,51.3,30.04,East,90,0.0,0.0,60,0.00,,,0.00,WUHU21623XXSP,2013-05-16 02:49:00,
2013-05-15 22:54:00,65.5,51.3,30.04,East,90,0.0,0.0,60,0.00,,,0.00,WUHU21623XXSP,2013-05-16 02:54:00,
2013-05-15 22:59:00,65.3,51.1,30.04,East,90,0.0,0.0,60,0.00,,,0.00,WUHU21623XXSP,2013-05-16 02:59:00,
2013-05-15 23:04:00,64.9,51.1,30.04,East,90,0.0,0.0,61,0.00,,,0.00,WUHU21623XXSP,2013-05-16 03:04:00,
2013-05-15 23:09:00,64.8,51.0,30.05,ESE,112,0.0,0.0,61,0.00,,,0.00,WUHU21623XXSP,2013-05-16 03:09:00,
2013-05-15 23:14:00,64.2,50.9,30.04,ESE,112,0.0,0.0,62,0.00,,,0.00,WUHU21623XXSP,2013-05-16 03:14:00,
2013-05-15 23:19:00,64.0,51.6,30.05,South,180,0.0,0.0,64,0.00,,,0.00,WUHU21623XXSP,2013-05-16 03:19:00,
2013-05-15 23:24:00,63.7,51.2,30.05,ESE,112,0.0,0.0,64,0.00,,,0.00,WUHU21623XXSP,2013-05-16 03:24:00,
2013-05-15 23:29:00,63.3,50.9,30.05,ESE,112,0.0,0.0,64,0.00,,,0.00,WUHU21623XXSP,2013-05-16 03:29:00,
2013-05-15 23:34:00,63.1,51.1,30.05,ESE,112,0.0,0.0,65,0.00,,,0.00,WUHU21623XXSP,2013-05-16 03:34:00,
2013-05-15 23:39:00,63.0,51.0,30.05,ESE,112,0.0,0.0,65,0.00,,,0.00,WUHU21623XXSP,2013-05-16 03:39:00,
2013-05-15 23:44:00,62.4,50.9,30.05,ESE,112,0.0,0.0,66,0.00,,,0.00,WUHU21623XXSP,2013-05-16 03:44:00,
2013-05-15 23:49:00,62.4,51.3,30.05,ESE,112,0.0,0.0,67,0.00,,,0.00,WUHU21623XXSP,2013-05-16 03:49:00,
2013-05-15 23:55:00,62.2,50.7,30.04,East,90,0.0,0.0,67,0.00,,,0.00,WUHU21623XXSP,2013-05-16 03:55:00,